KG0HG Weather Reports


Display with metric or nautical units.
time (UTC)temp
F
wind
direction
speed
MPH
gust
MPH
rain 1hr
in
rain 24hr
in
rain mn
in
humidity
%
barometer
mb
20260902164634 92 187 8.0 9.0 0.00 0.00 0.00 53 1016.2
20260902164133 93 168 2.0 6.0 0.00 0.00 0.00 55 1016.3
20260902163628 92 169 4.0 6.0 0.00 0.00 0.00 55 1015.9
20260902163127 92 170 4.0 6.0 0.00 0.00 0.00 55 1016.0
20260902162626 91 162 2.0 8.0 0.00 0.00 0.00 55 1016.0
20260902162121 91 171 2.0 11.0 0.00 0.00 0.00 56 1016.2
20260902161616 91 264 3.0 5.0 0.00 0.00 0.00 56 1016.0
20260902161112 90 181 3.0 3.0 0.00 0.00 0.00 56 1016.3
20260902160609 90 191 2.0 7.0 0.00 0.00 0.00 56 1016.2
20260902160103 90 177 3.0 8.0 0.00 0.00 0.00 57 1016.2
20260902155602 90 172 3.0 5.0 0.00 0.00 0.00 57 1016.2
20260902155100 89 174 1.0 5.0 0.00 0.00 0.00 59 1016.2
20260902154556 89 157 2.0 6.0 0.00 0.00 0.00 57 1016.3
20260902154050 89 155 2.0 3.0 0.00 0.00 0.00 59 1016.2
20260902153549 89 169 2.0 5.0 0.00 0.00 0.00 60 1016.2
20260902153045 89 171 3.0 5.0 0.00 0.00 0.00 60 1016.0
20260902152541 88 157 3.0 3.0 0.00 0.00 0.00 60 1016.2
20260902152036 88 251 2.0 3.0 0.00 0.00 0.00 60 1015.8
20260902151532 88 159 6.0 8.0 0.00 0.00 0.00 60 1016.3
20260902151031 88 210 3.0 5.0 0.00 0.00 0.00 60 1016.3
20260902150527 87 183 3.0 6.0 0.00 0.00 0.00 61 1016.0
20260902150022 87 192 3.0 3.0 0.00 0.00 0.00 63 1016.2
20260902145517 87 177 3.0 5.0 0.00 0.00 0.00 63 1016.0
20260902145017 86 179 3.0 5.0 0.00 0.00 0.00 64 1016.2
20260902144513 86 180 1.0 3.0 0.00 0.00 0.00 65 1016.2
20260902144008 86 165 1.0 6.0 0.00 0.00 0.00 65 1016.2
20260902143503 85 177 1.0 3.0 0.00 0.00 0.00 66 1016.0
20260902142958 84 177 1.0 3.0 0.00 0.00 0.00 67 1016.0
20260902142454 84 168 1.0 5.0 0.00 0.00 0.00 67 1016.2
20260902141949 83 166 2.0 3.0 0.00 0.00 0.00 68 1016.2
20260902141443 83 166 2.0 3.0 0.00 0.00 0.00 69 1016.2
20260902140938 83 168 2.0 5.0 0.00 0.00 0.00 68 1016.0
20260902140433 82 165 0.0 2.0 0.00 0.00 0.00 70 1016.2
20260902135932 82 165 1.0 3.0 0.00 0.00 0.00 70 1016.4
20260902135428 81 166 1.0 5.0 0.00 0.00 0.00 70 1015.9
20260902134927 81 166 3.0 5.0 0.00 0.00 0.00 71 1016.2
20260902134423 80 165 3.0 3.0 0.00 0.00 0.00 72 1016.2
20260902133918 80 165 0.0 2.0 0.00 0.00 0.00 73 1016.3
20260902133413 80 165 1.0 2.0 0.00 0.00 0.00 73 1016.2
20260902132907 79 166 0.0 3.0 0.00 0.00 0.00 74 1016.2
20260902132403 78 166 2.0 2.0 0.00 0.00 0.00 75 1016.3
20260902131858 78 166 0.0 0.0 0.00 0.00 0.00 77 1016.2
20260902131355 77 166 0.0 0.0 0.00 0.00 0.00 78 1016.2
20260902130854 76 166 0.0 0.0 0.00 0.00 0.00 79 1016.3
20260902130350 76 166 0.0 0.0 0.00 0.00 0.00 80 1016.2
20260902125844 75 166 0.0 0.0 0.00 0.00 0.00 81 1016.2
20260902125340 75 166 0.0 0.0 0.00 0.00 0.00 81 1016.0
20260902124836 75 166 0.0 0.0 0.00 0.00 0.00 81 1016.2
20260902124332 75 166 0.0 0.0 0.00 0.00 0.00 82 1016.0
20260902123827 74 166 0.0 0.0 0.00 0.00 0.00 82 1016.0
20260902123324 74 166 0.0 0.0 0.00 0.00 0.00 82 1015.9
20260902122822 75 166 0.0 0.0 0.00 0.00 0.00 81 1015.9
20260902122318 74 166 0.0 0.0 0.00 0.00 0.00 81 1015.8
20260902121817 75 166 0.0 0.0 0.00 0.00 0.00 81 1015.8
20260902121313 75 166 0.0 0.0 0.00 0.00 0.00 80 1016.0
20260902120808 75 166 0.0 0.0 0.00 0.00 0.00 80 1015.8
20260902120304 75 166 0.0 0.0 0.00 0.00 0.00 80 1015.8
20260902115759 75 166 0.0 0.0 0.00 0.00 0.00 80 1015.7
20260902115256 75 166 0.0 0.0 0.00 0.00 0.00 79 1015.8
20260902114752 75 166 0.0 0.0 0.00 0.00 0.00 79 1015.7
20260902114248 75 166 0.0 0.0 0.00 0.00 0.00 78 1015.8
20260902113747 76 166 0.0 0.0 0.00 0.00 0.00 78 1015.5
20260902113243 76 166 0.0 0.0 0.00 0.00 0.00 77 1015.6
20260902112741 76 166 0.0 0.0 0.00 0.00 0.00 77 1015.6
20260902112239 76 166 0.0 0.0 0.00 0.00 0.00 77 1015.6
20260902111734 76 166 0.0 0.0 0.00 0.00 0.00 77 1015.5
20260902111231 76 166 0.0 0.0 0.00 0.00 0.00 76 1015.4
20260902110726 77 166 0.0 0.0 0.00 0.00 0.00 76 1015.3
20260902110222 77 166 0.0 0.0 0.00 0.00 0.00 75 1015.3
20260902105721 77 166 0.0 0.0 0.00 0.00 0.00 75 1015.3
20260902105216 77 166 0.0 0.0 0.00 0.00 0.00 74 1015.5
20260902104712 77 166 0.0 0.0 0.00 0.00 0.00 74 1015.6
20260902104208 77 166 0.0 0.0 0.00 0.00 0.00 74 1015.4
20260902103707 77 166 0.0 0.0 0.00 0.00 0.00 74 1015.1
20260902103202 77 166 0.0 0.0 0.00 0.00 0.00 74 1015.2
20260902102658 77 166 0.0 0.0 0.00 0.00 0.00 74 1015.3
20260902102155 77 166 0.0 0.0 0.00 0.00 0.00 74 1014.9
20260902101650 77 166 0.0 0.0 0.00 0.00 0.00 74 1015.1
20260902101150 77 166 0.0 0.0 0.00 0.00 0.00 75 1015.1
20260902100644 77 166 0.0 0.0 0.00 0.00 0.00 75 1014.9
20260902100139 76 166 0.0 0.0 0.00 0.00 0.00 76 1015.0
20260902095638 76 166 0.0 0.0 0.00 0.00 0.00 76 1014.9
20260902095138 76 166 0.0 0.0 0.00 0.00 0.00 77 1014.9
20260902094633 76 166 0.0 0.0 0.00 0.00 0.00 78 1015.0
20260902094130 75 166 0.0 0.0 0.00 0.00 0.00 78 1015.1
20260902093629 75 166 0.0 0.0 0.00 0.00 0.00 80 1014.7
20260902093124 74 166 0.0 0.0 0.00 0.00 0.00 82 1014.8
20260902092619 74 166 0.0 0.0 0.00 0.00 0.00 82 1014.9
20260902092114 74 166 0.0 0.0 0.00 0.00 0.00 83 1014.7
20260902091609 73 166 0.0 0.0 0.00 0.00 0.00 84 1014.8
20260902091105 73 166 0.0 0.0 0.00 0.00 0.00 86 1014.8
20260902090601 72 166 0.0 0.0 0.00 0.00 0.00 88 1014.9
20260902090059 72 166 0.0 0.0 0.00 0.00 0.00 91 1015.0
20260902085554 71 166 0.0 0.0 0.00 0.00 0.00 92 1014.9
20260902085049 71 166 0.0 0.0 0.00 0.00 0.00 93 1014.7
20260902084546 71 166 0.0 0.0 0.00 0.00 0.00 93 1014.7
20260902084041 72 166 0.0 0.0 0.00 0.00 0.00 93 1015.0
20260902083536 72 166 0.0 0.0 0.00 0.00 0.00 93 1015.0
20260902083036 72 166 0.0 0.0 0.00 0.00 0.00 93 1014.8
20260902082532 72 166 0.0 0.0 0.00 0.00 0.00 92 1014.5
20260902082028 72 166 0.0 0.0 0.00 0.00 0.00 92 1014.6
20260902081525 72 166 0.0 0.0 0.00 0.00 0.00 92 1014.6
20260902081024 72 166 0.0 0.0 0.00 0.00 0.00 91 1014.4
20260902080520 72 166 0.0 0.0 0.00 0.00 0.00 91 1014.3
20260902080016 73 166 0.0 0.0 0.00 0.00 0.00 91 1014.3
20260902075510 72 166 0.0 0.0 0.00 0.00 0.00 91 1014.6
20260902075007 73 166 0.0 0.0 0.00 0.00 0.00 90 1014.6
20260902074501 73 166 0.0 0.0 0.00 0.00 0.00 90 1014.5
20260902073956 73 166 0.0 0.0 0.00 0.00 0.00 90 1014.7
20260902073452 73 166 0.0 0.0 0.00 0.00 0.00 90 1014.5
20260902072948 72 166 0.0 0.0 0.00 0.00 0.00 90 1014.6
20260902072444 73 166 0.0 0.0 0.00 0.00 0.00 91 1014.4
20260902071940 73 166 0.0 0.0 0.00 0.00 0.00 91 1014.4
20260902071439 73 166 0.0 0.0 0.00 0.00 0.00 91 1014.5
20260902070936 73 166 0.0 0.0 0.00 0.00 0.00 91 1014.5
20260902070431 73 166 1.0 1.0 0.00 0.00 0.00 91 1014.7
20260902065930 73 166 0.0 0.0 0.00 0.00 0.00 91 1014.5
20260902065425 73 166 0.0 0.0 0.00 0.00 0.00 91 1014.7
20260902064921 73 166 0.0 0.0 0.00 0.00 0.00 90 1014.8
20260902064416 74 166 0.0 0.0 0.00 0.00 0.00 90 1014.6
20260902063911 74 166 0.0 0.0 0.00 0.00 0.00 90 1014.7
20260902063411 73 166 0.0 0.0 0.00 0.00 0.00 89 1014.8
20260902062907 74 166 0.0 0.0 0.00 0.00 0.00 89 1014.6
20260902062406 74 166 0.0 0.0 0.00 0.00 0.00 89 1014.8
20260902061905 74 166 0.0 0.0 0.00 0.00 0.00 89 1014.8
20260902061401 74 166 0.0 0.0 0.00 0.00 0.00 89 1014.6
20260902060857 74 166 0.0 0.0 0.00 0.00 0.00 89 1014.8
20260902060352 74 166 0.0 0.0 0.00 0.00 0.00 89 1014.7
20260902055848 74 166 0.0 0.0 0.00 0.00 0.00 89 1014.6
20260902055344 74 166 0.0 0.0 0.00 0.00 0.00 89 1014.7
20260902054839 74 166 0.0 0.0 0.00 0.00 0.00 89 1014.5
20260902054335 74 166 0.0 0.0 0.00 0.00 0.00 89 1014.6
20260902053830 75 166 0.0 0.0 0.00 0.00 0.00 89 1014.5
20260902053325 75 166 0.0 0.0 0.00 0.00 0.00 89 1014.9
20260902052824 74 166 0.0 0.0 0.00 0.00 0.00 89 1014.6
20260902052320 75 166 0.0 0.0 0.00 0.00 0.00 89 1014.6
20260902051820 75 166 0.0 0.0 0.00 0.00 0.00 89 1014.7
20260902051314 75 166 0.0 0.0 0.00 0.00 0.00 89 1014.6
20260902050809 75 166 0.0 0.0 0.00 0.00 0.00 89 1014.6
20260902050308 75 166 0.0 0.0 0.00 0.00 0.00 89 1014.7
20260902045803 75 166 0.0 0.0 0.00 0.00 0.00 88 1014.5
20260902045259 75 166 0.0 0.0 0.00 0.00 0.00 88 1014.4
20260902044755 75 166 0.0 0.0 0.00 0.00 0.00 87 1014.6
20260902044250 75 166 0.0 0.0 0.00 0.00 0.00 87 1014.6
20260902043745 75 166 0.0 0.0 0.00 0.00 0.00 87 1014.4
20260902043241 76 166 0.0 0.0 0.00 0.00 0.00 87 1014.3
20260902042739 76 166 0.0 0.0 0.00 0.00 0.00 87 1014.5
20260902042234 76 166 0.0 0.0 0.00 0.00 0.00 87 1014.6
20260902041730 76 166 0.0 0.0 0.00 0.00 0.00 86 1014.5
20260902041225 76 166 0.0 0.0 0.00 0.00 0.00 86 1014.6
20260902040724 77 166 0.0 0.0 0.00 0.00 0.00 86 1014.7
20260902040220 77 166 0.0 0.0 0.00 0.00 0.00 86 1014.7
20260902035718 77 166 0.0 0.0 0.00 0.00 0.00 85 1014.4
20260902035214 77 166 0.0 0.0 0.00 0.00 0.00 85 1014.6
20260902034713 77 166 0.0 0.0 0.00 0.00 0.00 84 1014.6
20260902034213 77 166 0.0 0.0 0.00 0.00 0.00 84 1014.5
20260902033711 78 166 0.0 0.0 0.00 0.00 0.00 83 1014.5
20260902033206 78 166 0.0 0.0 0.00 0.00 0.00 83 1014.6
20260902032704 78 166 0.0 0.0 0.00 0.00 0.00 82 1014.5
20260902032200 78 166 0.0 0.0 0.00 0.00 0.00 81 1014.7
20260902031654 78 166 0.0 0.0 0.00 0.00 0.00 81 1014.2
20260902031150 78 166 0.0 0.0 0.00 0.00 0.00 80 1014.3
20260902030646 79 166 0.0 0.0 0.00 0.00 0.00 80 1014.3
20260902030144 79 166 0.0 0.0 0.00 0.00 0.00 79 1014.2
20260902025644 79 166 0.0 0.0 0.00 0.00 0.00 78 1014.2
20260902025140 80 166 0.0 0.0 0.00 0.00 0.00 77 1014.3
20260902024635 80 166 0.0 0.0 0.00 0.00 0.00 76 1014.1
20260902024130 80 166 0.0 0.0 0.00 0.00 0.00 75 1014.1
20260902023626 80 166 0.0 0.0 0.00 0.00 0.00 75 1014.2
20260902023125 80 166 0.0 0.0 0.00 0.00 0.00 74 1014.4
20260902022620 81 166 0.0 0.0 0.00 0.00 0.00 73 1014.1
20260902022116 81 166 0.0 0.0 0.00 0.00 0.00 72 1014.2
20260902021611 81 166 0.0 0.0 0.00 0.00 0.00 71 1014.0
20260902021106 82 166 0.0 0.0 0.00 0.00 0.00 70 1014.1
20260902020602 82 166 0.0 0.0 0.00 0.00 0.00 69 1014.0
20260902020058 83 166 0.0 0.0 0.00 0.00 0.00 68 1014.0
20260902015553 83 166 0.0 0.0 0.00 0.00 0.00 67 1013.8
20260902015049 83 166 0.0 0.0 0.00 0.00 0.00 66 1014.1
20260902014544 84 166 0.0 0.0 0.00 0.00 0.00 65 1014.0
20260902014039 84 166 0.0 0.0 0.00 0.00 0.00 64 1014.0
20260902013539 84 166 0.0 0.0 0.00 0.00 0.00 63 1013.8
20260902013035 85 166 0.0 0.0 0.00 0.00 0.00 62 1013.6
20260902012530 85 166 0.0 0.0 0.00 0.00 0.00 61 1013.6
20260902012025 85 166 0.0 0.0 0.00 0.00 0.00 60 1013.7
20260902011520 86 166 0.0 0.0 0.00 0.00 0.00 59 1013.5
20260902011015 86 166 0.0 0.0 0.00 0.00 0.00 58 1013.7
20260902010515 86 166 0.0 0.0 0.00 0.00 0.00 57 1013.6
20260902010010 87 166 0.0 0.0 0.00 0.00 0.00 56 1013.6
20260902005508 87 166 0.0 0.0 0.00 0.00 0.00 54 1013.6
20260902005005 88 166 0.0 0.0 0.00 0.00 0.00 53 1013.5
20260902004504 88 166 0.0 0.0 0.00 0.00 0.00 52 1013.5
20260902003959 89 166 0.0 0.0 0.00 0.00 0.00 51 1013.5
20260902003454 90 166 0.0 0.0 0.00 0.00 0.00 49 1013.8
20260902002950 91 166 0.0 0.0 0.00 0.00 0.00 48 1013.6
20260902002445 91 166 0.0 0.0 0.00 0.00 0.00 47 1013.6
20260902001944 92 166 0.0 0.0 0.00 0.00 0.00 46 1013.8
20260902001439 93 166 0.0 0.0 0.00 0.00 0.00 45 1013.6
20260902000934 94 166 0.0 1.0 0.00 0.00 0.00 43 1013.8
20260902000429 94 166 0.0 2.0 0.00 0.00 0.00 43 1013.8
20260901235924 94 166 1.0 1.0 0.00 0.00 0.00 42 1013.9
20260901235419 95 166 1.0 1.0 0.00 0.00 0.00 42 1013.7
20260901234914 95 166 2.0 2.0 0.00 0.00 0.00 41 1013.8
20260901234408 95 166 1.0 1.0 0.00 0.00 0.00 42 1013.8
20260901233903 96 166 0.0 0.0 0.00 0.00 0.00 41 1014.1
20260901233358 96 166 1.0 1.0 0.00 0.00 0.00 41 1014.0
20260901232854 96 166 2.0 2.0 0.00 0.00 0.00 38 1013.7
20260901232348 96 160 1.0 3.0 0.00 0.00 0.00 38 1013.9
20260901231844 97 160 1.0 2.0 0.00 0.00 0.00 38 1013.8
20260901231341 96 160 2.0 3.0 0.00 0.00 0.00 37 1013.7
20260901230837 97 160 2.0 3.0 0.00 0.00 0.00 37 1014.0
20260901230336 96 166 3.0 5.0 0.00 0.00 0.00 37 1013.7
20260901225832 97 168 5.0 6.0 0.00 0.00 0.00 36 1013.9
20260901225331 97 171 3.0 7.0 0.00 0.00 0.00 36 1013.7
20260901224826 97 175 3.0 3.0 0.00 0.00 0.00 36 1013.7
20260901224323 97 171 1.0 2.0 0.00 0.00 0.00 36 1013.7
20260901223819 97 170 3.0 6.0 0.00 0.00 0.00 36 1013.8
20260901223314 97 165 2.0 3.0 0.00 0.00 0.00 36 1014.0
20260901222809 97 173 3.0 7.0 0.00 0.00 0.00 36 1013.7
20260901222306 98 176 4.0 6.0 0.00 0.00 0.00 35 1013.9
20260901221802 98 141 2.0 2.0 0.00 0.00 0.00 37 1013.7
20260901221256 98 139 1.0 2.0 0.00 0.00 0.00 38 1013.7
20260901220756 98 156 3.0 6.0 0.00 0.00 0.00 36 1013.7
20260901220250 98 173 1.0 7.0 0.00 0.00 0.00 35 1013.8
20260901215749 98 220 2.0 8.0 0.00 0.00 0.00 35 1013.9
20260901215248 98 156 2.0 3.0 0.00 0.00 0.00 36 1013.8
20260901214747 98 166 1.0 5.0 0.00 0.00 0.00 36 1013.9
20260901214246 98 168 2.0 5.0 0.00 0.00 0.00 34 1013.9
20260901213741 98 178 2.0 5.0 0.00 0.00 0.00 36 1014.0
20260901213240 98 162 3.0 6.0 0.00 0.00 0.00 36 1014.1
20260901212735 99 168 4.0 8.0 0.00 0.00 0.00 35 1014.2
20260901212231 98 158 1.0 3.0 0.00 0.00 0.00 35 1013.9
20260901211726 98 171 3.0 6.0 0.00 0.00 0.00 34 1014.1
20260901211222 99 164 2.0 6.0 0.00 0.00 0.00 34 1014.2
20260901210717 98 258 4.0 8.0 0.00 0.00 0.00 34 1014.3
20260901210208 98 160 4.0 5.0 0.00 0.00 0.00 33 1014.5
20260901205703 98 165 4.0 9.0 0.00 0.00 0.00 34 1014.4
20260901205158 99 162 4.0 10.0 0.00 0.00 0.00 34 1014.3
20260901204653 98 170 5.0 6.0 0.00 0.00 0.00 34 1014.4
20260901204148 98 176 2.0 6.0 0.00 0.00 0.00 34 1014.5
20260901203643 99 165 4.0 6.0 0.00 0.00 0.00 34 1014.7
20260901203138 98 174 5.0 6.0 0.00 0.00 0.00 36 1014.4
20260901202637 99 164 5.0 7.0 0.00 0.00 0.00 34 1014.6
20260901202133 98 166 2.0 5.0 0.00 0.00 0.00 35 1014.6
20260901201629 98 168 6.0 8.0 0.00 0.00 0.00 34 1014.8
20260901201127 98 249 3.0 8.0 0.00 0.00 0.00 34 1014.9
20260901200622 98 164 5.0 7.0 0.00 0.00 0.00 34 1014.9
20260901200117 98 162 2.0 7.0 0.00 0.00 0.00 35 1014.8
20260901195614 98 190 3.0 8.0 0.00 0.00 0.00 34 1015.1
20260901195109 98 164 3.0 7.0 0.00 0.00 0.00 34 1015.0
20260901194604 99 201 2.0 5.0 0.00 0.00 0.00 35 1015.2
20260901194059 98 298 3.0 6.0 0.00 0.00 0.00 35 1015.0
20260901193555 98 182 2.0 5.0 0.00 0.00 0.00 34 1015.1
20260901193049 98 153 4.0 6.0 0.00 0.00 0.00 34 1015.2
20260901192544 98 189 3.0 7.0 0.00 0.00 0.00 35 1015.1
20260901192040 98 162 3.0 3.0 0.00 0.00 0.00 35 1015.1
20260901191536 97 167 1.0 3.0 0.00 0.00 0.00 36 1015.1
20260901191032 97 172 5.0 7.0 0.00 0.00 0.00 36 1015.2
20260901190526 98 161 2.0 7.0 0.00 0.00 0.00 36 1015.4
20260901190025 97 197 3.0 3.0 0.00 0.00 0.00 36 1015.1
20260901185519 96 173 4.0 6.0 0.00 0.00 0.00 37 1015.2
20260901185018 96 161 3.0 5.0 0.00 0.00 0.00 38 1015.4
20260901184514 96 169 3.0 6.0 0.00 0.00 0.00 37 1015.5
20260901184009 96 162 4.0 5.0 0.00 0.00 0.00 38 1015.4
20260901183503 96 152 2.0 5.0 0.00 0.00 0.00 37 1015.5
20260901182959 96 157 5.0 6.0 0.00 0.00 0.00 37 1015.7
20260901182454 96 304 1.0 3.0 0.00 0.00 0.00 38 1015.6
20260901181949 96 281 5.0 7.0 0.00 0.00 0.00 37 1015.6
20260901181449 95 147 3.0 6.0 0.00 0.00 0.00 38 1016.0
20260901180948 96 175 4.0 6.0 0.00 0.00 0.00 38 1016.2
20260901180442 96 265 3.0 5.0 0.00 0.00 0.00 37 1016.2
20260901175940 95 169 2.0 5.0 0.00 0.00 0.00 40 1016.4
20260901175435 95 164 4.0 9.0 0.00 0.00 0.00 39 1016.2
20260901174930 95 165 2.0 8.0 0.00 0.00 0.00 39 1016.3
20260901174426 96 169 2.0 5.0 0.00 0.00 0.00 39 1016.4
20260901173921 95 164 1.0 6.0 0.00 0.00 0.00 40 1016.4
20260901173416 94 153 1.0 2.0 0.00 0.00 0.00 41 1016.6
20260901172913 94 307 1.0 5.0 0.00 0.00 0.00 41 1016.6
20260901172407 95 154 2.0 6.0 0.00 0.00 0.00 42 1016.4
20260901171905 95 146 2.0 5.0 0.00 0.00 0.00 42 1016.6
20260901171403 94 230 1.0 3.0 0.00 0.00 0.00 42 1016.5
20260901170902 93 163 3.0 6.0 0.00 0.00 0.00 43 1016.6
20260901170357 94 151 2.0 5.0 0.00 0.00 0.00 44 1016.5
20260901165851 93 163 2.0 8.0 0.00 0.00 0.00 44 1016.6
20260901165346 93 180 3.0 7.0 0.00 0.00 0.00 44 1016.7